Hourly Data Report for October 03, 2014

All times are specified in Local Standard Time (LST). Add 1 hour to adjust for Daylight Saving Time where and when it is observed.

KITCHENER/WATERLOO
ONTARIO

43°27'39.000" N
80°22'43.000" W
321.60 m
6144239
71368
YKF

Download Data

Hourly Data (October 2014)
Hourly Data Report for October 3, 2014
Temp Definition
°C
Dew Point Temp Definition
°C
Rel Hum Definition
%
Wind Dir Definition
10's deg

Wind Spd Definition
km/h
Visibility Definition
km
Stn Press Definition
kPa
Hmdx Definition


Wind Chill Definition


Weather Definition


TIME
00:00 Legend Double Dagger 14.4 13.6 95 12 13 3.6 97.51     Fog
01:00 Legend Double Dagger 14.9 13.6 92 13 11 6.4 97.46     Fog
02:00 Legend Double Dagger 15.3 13.7 90 13 13 9.7 97.40     Fog
03:00 Legend Double Dagger 15.5 13.7 89 13 15 12.9 97.30     LegendNANA
04:00 Legend Double Dagger 15.6 13.8 89 12 15 12.9 97.23     LegendNANA
05:00 Legend Double Dagger 15.7 13.6 87 14 18 14.5 97.14     LegendNANA
06:00 Legend Double Dagger 15.2 13.4 89 14 17 11.3 97.07     LegendNANA
07:00 Legend Double Dagger 15.6 13.6 88 13 17 12.9 96.98     LegendNANA
08:00 Legend Double Dagger 16.8 14.1 84 14 24 14.5 96.87     LegendNANA
09:00 Legend Double Dagger 18.9 14.8 77 15 34 16.1 96.78     LegendNANA
10:00 Legend Double Dagger 19.8 15.1 74 15 24 16.1 96.64     LegendNANA
11:00 Legend Double Dagger 21.6 15.3 67 15 37 16.1 96.45 26   LegendNANA
12:00 Legend Double Dagger 20.9 15.3 70 17 35 16.1 96.40 25   LegendNANA
13:00 Legend Double Dagger 17.5 16.4 93 16 24 4.8 96.38     Moderate Rain,Fog
14:00 Legend Double Dagger 17.9 16.6 92 17 32 8.1 96.29     Rain,Fog
15:00 Legend Double Dagger 17.7 16.4 92 20 24 14.5 96.29     Rain
16:00 Legend Double Dagger 17.4 15.5 88 19 28 16.1 96.25     LegendNANA
17:00 Legend Double Dagger 17.0 15.5 91 20 21 16.1 96.27     LegendNANA
18:00 Legend Double Dagger 15.9 14.5 91 25 15 9.7 96.30     Rain,Fog
19:00 Legend Double Dagger 15.2 12.9 86 29 22 16.1 96.35     LegendNANA
20:00 Legend Double Dagger 14.2 12.8 91 28 9 16.1 96.38     Rain
21:00 Legend Double Dagger 13.9 13.0 94 21 8 16.1 96.40     LegendNANA
22:00 Legend Double Dagger 13.7 12.6 93 25 8 16.1 96.27     LegendNANA
23:00 Legend Double Dagger 13.3 11.9 91 27 28 8.1 96.25     Moderate Rain,Fog

Notes on Data Quality.

Legend

  • E = Estimated
  • M = Missing
  • NA = Not Available
  • ‡ = Partner data that is not subject to review by the National Climate Archives
Date modified: